sat.trackr.live / text

‹ back to catalog

STARLINK-34427

NORAD 64498 · 2025-133AC

PAYLOAD ACTIVE UNKNOWN

§ Identity

Operator
Country
US
Launch date
2025-06-23
Launch site
AFETR
Launch vehicle
Mass (kg)
RCS (m²)

Purposes: comms

External: N2YO · Heavens-Above · Gunter

§ Orbital elements

Epoch: 2026-05-25T04:35:29.946912Z

Period
94.11 min
Inclination
53.1602°
Eccentricity
0.0001281
Mean motion
15.30200717 rev/d
Perigee alt
474.3 km
Apogee alt
476.1 km
Semi-major
6,853.3 km
B*
-4.4343e-6
RAAN
121.2691°
Arg perigee
93.5018°
Mean anomaly
266.6129°
Rev number
5,290

§ Raw data

STARLINK-344271 64498U 25133AC  26145.19131883 -.00000491  00000+0 -44343-5 0  99952 64498  53.1602 121.2691 0001281  93.5018 266.6129 15.30200717 52904

JSON: /api/v1/satellites/64498 · /tle

For live sub-satellite position, see the globe view (requires WebGL).

§ Visibility from observer

Set your observer location to see the next 7 days of passes ≥ 10°. The values pass through the URL so the page stays shareable.

No JS? Fill the form by hand. The geolocation button needs JavaScript.